#timestamp,LO_Frequency,Hit 
1503975615.3,286046999.7,N
1503975635.2,286046999.8,N
1503975655.9,286047000.8,N
1503975675.7,286047003.7,N
1503975695.6,286047004.8,N
1503975715.4,286047003.5,N
1503975735.2,286047000.5,N
1503975755.0,286047000.8,N
1503975755.9,286047000.8,N
1503975775.8,286047002.7,N
1503975795.6,286047004.0,N
1503975815.4,286047005.7,N
1503975835.3,286047005.3,N
1503975855.1,286047007.5,N
1503975856.0,286047007.5,N
1503975875.8,286047006.9,N
1503975895.7,286047008.1,N
1503975915.5,286047007.9,N
1503975935.3,286047012.4,P
1503975955.2,286047003.5,N
1503975975.9,286047004.0,N
1503975995.7,286047000.1,N
1503976015.6,286046998.1,N
1503976035.4,286046999.3,N
1503976055.2,286047000.6,N
1503976075.1,286046998.8,N
1503976076.0,286046998.8,N
1503976095.8,286046996.8,N
1503976115.6,286047000.2,N
1503976135.5,286047001.4,N
1503976155.3,286046999.9,N
1503976175.1,286046998.9,N
1503976195.8,286046997.4,N
1503976215.7,286046999.6,N
1503976235.5,286046994.9,N
1503976255.3,286046995.1,N
1503976275.2,286046995.5,N
1503976295.9,286046997.3,N
1503976315.7,286046999.6,N
1503976335.6,286047002.4,N
1503976355.4,286047001.3,N
1503976375.2,286047000.6,N
1503976395.1,286047001.3,N
1503976396.0,286047001.3,N
1503976415.8,286047002.8,N
1503976435.6,286046995.5,N
1503976455.5,286046992.4,N
1503976475.3,286046990.9,N
1503976495.1,286046992.5,N
1503976515.8,286046990.9,N
1503976535.7,286046992.8,N
1503976555.5,286046994.7,N
1503976575.3,286046991.1,N
1503976595.2,286046985.9,P
1503976615.0,286046987.5,N
1503976615.9,286046987.5,N
1503976635.7,286046986.3,N
1503976655.6,286046985.3,P
1503976675.4,286046998.8,N
1503976695.2,286047000.5,N
1503976715.1,286047000.1,N
1503976716.0,286047000.1,N
1503976735.8,286046997.0,N
1503976755.6,286047000.8,N
1503976775.5,286047004.0,N
1503976795.3,286046999.2,N
1503976815.1,286046998.6,N
1503976835.9,286046998.7,N
1503976855.7,286047001.1,N
1503976875.5,286046999.0,N
1503976895.4,286046995.6,N
1503976915.2,286046996.9,N
1503976935.0,286046998.2,N
1503976935.9,286046998.2,N
1503976955.8,286047000.5,N
1503976975.6,286046998.1,N
1503976995.4,286047003.6,N
1503977015.3,286047006.0,N
1503977035.1,286047005.7,N
1503977036.0,286047005.7,N
1503977055.8,286046997.0,N
1503977075.7,286046998.2,N
1503977095.5,286046999.2,N
1503977115.3,286046996.2,N
1503977135.1,286046997.0,N
1503977155.9,286047007.2,N
1503977175.7,286047004.6,N
1503977195.5,286047007.5,N
1503977215.4,286047003.7,N
1503977235.2,286047006.5,N
1503977255.0,286047009.8,N
1503977255.9,286047009.8,N
1503977275.8,286047008.2,N
1503977295.6,286047010.1,N
1503977315.4,286047007.9,N
1503977335.3,286047009.2,N
1503977355.1,286047005.7,N
1503977356.0,286047005.7,N
1503977375.8,286047006.2,N
1503977395.7,286047010.8,N
1503977415.5,286047010.1,N
1503977435.3,286047012.7,N
1503977455.2,286047014.9,P
1503977475.9,286047009.8,N
1503977495.7,286047009.3,N
1503977515.6,286047012.4,P
1503977535.4,286046999.7,N
1503977555.2,286047002.4,N
1503977575.1,286047000.2,N
1503977576.0,286047000.2,N
1503977595.8,286046998.2,N
1503977615.6,286046999.2,N
1503977635.5,286046999.6,N
1503977655.3,286047000.8,N
1503977675.1,286047002.1,N
1503977695.9,286047002.8,N
1503977715.7,286046998.4,N
1503977735.5,286046999.5,N
1503977755.3,286046998.2,N
1503977775.2,286046998.8,N
1503977795.0,286046998.5,N
1503977795.9,286046998.5,N
1503977815.7,286047001.0,N
1503977835.6,286047002.1,N
1503977855.4,286047001.6,N
1503977875.2,286047000.8,N
1503977895.1,286046998.9,N
1503977896.0,286046998.9,N
1503977915.8,286046998.4,N
1503977935.6,286046996.8,N
1503977955.5,286046999.5,N
1503977975.3,286046997.9,N
1503977995.1,286046995.5,N
1503978015.9,286046996.0,N
1503978035.7,286046998.4,N
1503978055.5,286047002.5,N
1503978075.3,286047002.1,N
1503978095.2,286047001.9,N
1503978115.0,286047001.9,N
1503978115.9,286047001.9,N
1503978135.7,286047000.8,N
1503978155.6,286047000.4,N
1503978175.4,286047000.0,N
1503978195.2,286047002.2,N
1503978215.1,286047001.7,N
1503978216.0,286047001.7,N
1503978235.8,286047005.8,N
1503978255.6,286047004.1,N
1503978275.5,286047004.7,N
1503978295.3,286046999.9,N
1503978315.1,286047002.8,N
1503978335.9,286046998.5,N
1503978355.7,286047001.2,N
1503978375.5,286046997.7,N
1503978395.4,286046994.5,N
1503978415.2,286046996.5,N
1503978435.0,286046999.7,N
1503978435.9,286046999.7,N
1503978455.8,286047000.3,N
1503978475.6,286047001.9,N
1503978495.4,286047000.8,N
1503978515.2,286046997.4,N
1503978535.1,286046996.5,N
1503978536.0,286046996.5,N
1503978555.8,286047003.4,N
1503978575.7,286047009.0,P
1503978595.5,286047005.6,N
1503978615.3,286047002.1,N
1503978635.1,286046998.6,N
1503978655.9,286047002.0,N
1503978675.7,286046998.9,N
1503978695.5,286046993.5,N
1503978715.4,286046990.1,N
1503978735.2,286046989.1,N
1503978755.0,286046988.8,N
1503978755.9,286046988.8,N
1503978775.8,286046995.6,N
1503978795.6,286046995.0,N
1503978815.4,286046990.4,N
1503978835.3,286046987.8,N
1503978855.1,286046983.8,N
1503978856.0,286046983.8,N
1503978875.8,286046982.2,N
1503978895.7,286046985.0,N
1503978915.5,286046984.4,N
1503978935.3,286046983.2,N
1503978955.1,286046980.8,N
1503978975.9,286046981.5,N
1503978995.7,286046980.8,N
1503979015.5,286046981.1,N
1503979035.4,286046981.9,N
1503979055.2,286046981.4,N
1503979075.0,286046979.5,N
1503979075.9,286046979.5,N
1503979095.8,286046978.4,N
1503979115.6,286046975.8,N
1503979135.4,286046976.8,N
1503979155.3,286046976.5,P
1503979175.1,286046994.0,N
1503979195.8,286046994.3,N
